User: anonymous   Login
Location: Fountain Hills
(33.6120°N, 111.7170°W)
Time: 14:44:06
(UTC-07:00)
Language:

Hamsat - Orbit

View from above orbital plane
View from above orbital plane
View from above satellite
View from above satellite

Ground track
Ground track

The orbit data is extracted from the following two-line orbital elements,

1 28650U 05017B   17112.90309117 +.00000717 +00000-0 +82331-4 0  9992
2 28650 097.6463 089.1319 0022463 316.6379 043.3070 14.88628566647874
Epoch (UTC): 22 April 2017 21:40:27
Eccentricity: 0.0022463
inclination: 97.6463°
perigee height: 586 km
apogee height: 618 km
right ascension of ascending node: 89.1319°
argument of perigee: 316.6379°
revolutions per day: 14.88628566
mean anomaly at epoch: 43.3070°
orbit number at epoch: 64787

The dashed part of the orbit path shows where the satellite is in the earth's shadow,  

DLR